When you browse on this site, cookies collect data to enhance your experience and personalize the content and advertising you see.
Visit our Privacy Policy to learn more. By continuing to use the site, you agree to this use of cookies and data.
  • In Österreich
  • Länderverzeichnis
  • Für 7 Tage
  • Wassertemperatur
  • Wetterkarte
  • News
  • Widgets
  • user-avatar
    Anmelden

    Stündliche Wetter Jeddah

    Heute, 6 April, Montag

    Zeit Temperatur Niederschläge Wind Luftdruck Luftfeuchtigkeit
    00:00 +31°C° 0 mm 2 m/S 757 mmHg 48%
    01:00 +31°C° 0 mm 1 m/S 756 mmHg 49%
    02:00 +30°C° 0 mm 1 m/S 755 mmHg 50%
    03:00 +30°C° 0 mm 1 m/S 755 mmHg 48%
    04:00 +30°C° 0 mm 1 m/S 755 mmHg 50%
    05:00 +29°C° 0 mm 1 m/S 755 mmHg 52%
    06:00 +29°C° 0 mm 1 m/S 756 mmHg 54%
    07:00 +30°C° 0 mm 1 m/S 756 mmHg 50%
    08:00 +32°C° 0 mm 1 m/S 756 mmHg 45%
    09:00 +34°C° 0 mm 1 m/S 757 mmHg 41%
    10:00 +36°C° 0 mm 2 m/S 757 mmHg 39%
    11:00 +37°C° 0 mm 3 m/S 757 mmHg 38%
    12:00 +38°C° 0 mm 4 m/S 756 mmHg 37%
    13:00 +38°C° 0 mm 4 m/S 756 mmHg 36%
    14:00 +38°C° 0 mm 4 m/S 756 mmHg 36%
    15:00 +39°C° 0 mm 5 m/S 755 mmHg 36%
    16:00 +37°C° 0 mm 4 m/S 755 mmHg 35%
    17:00 +37°C° 0 mm 4 m/S 755 mmHg 34%
    18:00 +37°C° 0 mm 4 m/S 755 mmHg 34%
    19:00 +35°C° 0 mm 3 m/S 755 mmHg 36%
    20:00 +34°C° 0 mm 2 m/S 756 mmHg 39%
    21:00 +32°C° 0 mm 2 m/S 756 mmHg 42%
    22:00 +31°C° 0 mm 1 m/S 756 mmHg 40%
    23:00 +31°C° 0 mm 1 m/S 756 mmHg 38%

    Morgen, 7 April, Dienstag

    Zeit Temperatur Niederschläge Wind Luftdruck Luftfeuchtigkeit
    00:00 +31°C° 0 mm 1 m/S 756 mmHg 36%
    01:00 +30°C° 0 mm 1 m/S 755 mmHg 41%
    02:00 +30°C° 0 mm 2 m/S 755 mmHg 46%
    03:00 +29°C° 0 mm 2 m/S 755 mmHg 50%
    04:00 +29°C° 0 mm 2 m/S 755 mmHg 53%
    05:00 +28°C° 0 mm 1 m/S 755 mmHg 56%
    06:00 +28°C° 0 mm 1 m/S 755 mmHg 59%
    07:00 +30°C° 0 mm 1 m/S 755 mmHg 51%
    08:00 +32°C° 0 mm 1 m/S 756 mmHg 44%
    09:00 +34°C° 0 mm 1 m/S 756 mmHg 36%
    10:00 +36°C° 0 mm 2 m/S 756 mmHg 33%
    11:00 +37°C° 0 mm 3 m/S 756 mmHg 30%
    12:00 +39°C° 0 mm 3 m/S 756 mmHg 27%
    13:00 +40°C° 0 mm 4 m/S 755 mmHg 28%
    14:00 +40°C° 0 mm 5 m/S 755 mmHg 28%
    15:00 +41°C° 0 mm 5 m/S 754 mmHg 29%
    16:00 +40°C° 0 mm 5 m/S 754 mmHg 30%
    17:00 +39°C° 0 mm 5 m/S 754 mmHg 30%
    18:00 +37°C° 0 mm 4 m/S 754 mmHg 31%
    19:00 +36°C° 0 mm 3 m/S 754 mmHg 36%
    20:00 +34°C° 0 mm 2 m/S 755 mmHg 42%
    21:00 +31°C° 0 mm 1 m/S 755 mmHg 47%
    22:00 +31°C° 0 mm 1 m/S 755 mmHg 47%
    23:00 +29°C° 0 mm 0 m/S 755 mmHg 47%

    übermorgen, 8 April, Mittwoch

    Zeit Temperatur Niederschläge Wind Luftdruck Luftfeuchtigkeit
    00:00 +28°C° 0 mm 0 m/S 754 mmHg 47%
    01:00 +28°C° 0 mm 0 m/S 754 mmHg 50%
    02:00 +29°C° 0 mm 1 m/S 754 mmHg 53%
    03:00 +29°C° 0 mm 1 m/S 754 mmHg 56%
    04:00 +29°C° 0 mm 1 m/S 754 mmHg 58%
    05:00 +28°C° 0 mm 1 m/S 754 mmHg 60%
    06:00 +28°C° 0 mm 1 m/S 755 mmHg 62%
    07:00 +28°C° 0 mm 0 m/S 755 mmHg 55%
    08:00 +29°C° 0 mm 0 m/S 755 mmHg 47%
    09:00 +31°C° 0 mm 0 m/S 756 mmHg 40%
    10:00 +36°C° 0 mm 2 m/S 756 mmHg 36%
    11:00 +37°C° 0 mm 3 m/S 755 mmHg 32%
    12:00 +40°C° 0 mm 4 m/S 755 mmHg 28%
    13:00 +40°C° 0 mm 4 m/S 755 mmHg 28%
    14:00 +40°C° 0 mm 5 m/S 754 mmHg 28%
    15:00 +40°C° 0 mm 5 m/S 754 mmHg 28%
    16:00 +39°C° 0 mm 5 m/S 753 mmHg 30%
    17:00 +37°C° 0 mm 5 m/S 753 mmHg 32%
    18:00 +36°C° 0 mm 4 m/S 753 mmHg 33%
    19:00 +34°C° 0 mm 4 m/S 754 mmHg 41%
    20:00 +33°C° 0 mm 3 m/S 754 mmHg 49%
    21:00 +30°C° 0 mm 2 m/S 754 mmHg 57%
    22:00 +30°C° 0 mm 2 m/S 754 mmHg 58%
    23:00 +29°C° 0 mm 2 m/S 754 mmHg 58%

    9 April, Donnerstag

    Zeit Temperatur Niederschläge Wind Luftdruck Luftfeuchtigkeit
    00:00 +29°C° 0 mm 2 m/S 754 mmHg 58%
    01:00 +29°C° 0 mm 1 m/S 754 mmHg 58%
    02:00 +28°C° 0 mm 1 m/S 753 mmHg 59%
    03:00 +28°C° 0 mm 1 m/S 753 mmHg 59%
    04:00 +28°C° 0 mm 1 m/S 753 mmHg 62%
    05:00 +27°C° 0 mm 2 m/S 754 mmHg 65%
    06:00 +27°C° 0 mm 2 m/S 754 mmHg 68%
    07:00 +28°C° 0 mm 3 m/S 754 mmHg 62%
    08:00 +30°C° 0 mm 3 m/S 755 mmHg 57%
    09:00 +31°C° 0 mm 3 m/S 755 mmHg 52%
    10:00 +33°C° 0 mm 3 m/S 755 mmHg 49%
    11:00 +34°C° 0 mm 4 m/S 755 mmHg 47%
    12:00 +35°C° 0 mm 5 m/S 755 mmHg 44%
    13:00 +35°C° 0 mm 5 m/S 754 mmHg 44%
    14:00 +35°C° 0 mm 5 m/S 754 mmHg 45%
    15:00 +35°C° 0 mm 6 m/S 753 mmHg 45%
    16:00 +34°C° 0 mm 5 m/S 753 mmHg 47%
    17:00 +34°C° 0 mm 5 m/S 753 mmHg 48%
    18:00 +33°C° 0 mm 5 m/S 753 mmHg 50%
    19:00 +32°C° 0 mm 4 m/S 754 mmHg 53%
    20:00 +30°C° 0 mm 4 m/S 754 mmHg 55%
    21:00 +29°C° 0 mm 3 m/S 754 mmHg 58%
    22:00 +28°C° 0 mm 4 m/S 754 mmHg 59%
    23:00 +28°C° 0 mm 4 m/S 754 mmHg 60%

    10 April, Freitag

    Zeit Temperatur Niederschläge Wind Luftdruck Luftfeuchtigkeit
    00:00 +27°C° 0 mm 4 m/S 754 mmHg 61%
    01:00 +27°C° 0 mm 4 m/S 754 mmHg 62%
    02:00 +27°C° 0 mm 4 m/S 753 mmHg 64%
    03:00 +26°C° 0 mm 4 m/S 753 mmHg 66%
    04:00 +26°C° 0 mm 3 m/S 753 mmHg 65%
    05:00 +26°C° 0 mm 3 m/S 753 mmHg 64%
    06:00 +26°C° 0 mm 2 m/S 754 mmHg 63%
    07:00 +27°C° 0 mm 3 m/S 754 mmHg 58%
    08:00 +29°C° 0 mm 4 m/S 755 mmHg 53%
    09:00 +30°C° 0 mm 5 m/S 755 mmHg 48%
    10:00 +32°C° 0 mm 5 m/S 755 mmHg 44%
    11:00 +33°C° 0 mm 6 m/S 755 mmHg 40%
    12:00 +35°C° 0 mm 7 m/S 755 mmHg 36%
    13:00 +35°C° 0 mm 7 m/S 754 mmHg 35%
    14:00 +35°C° 0 mm 8 m/S 754 mmHg 34%
    15:00 +35°C° 0 mm 8 m/S 753 mmHg 33%
    16:00 +34°C° 0 mm 8 m/S 753 mmHg 35%
    17:00 +33°C° 0 mm 7 m/S 753 mmHg 37%
    18:00 +32°C° 0 mm 7 m/S 753 mmHg 39%
    19:00 +30°C° 0 mm 7 m/S 754 mmHg 42%
    20:00 +29°C° 0 mm 6 m/S 754 mmHg 45%
    21:00 +28°C° 0 mm 6 m/S 754 mmHg 48%
    22:00 +28°C° 0 mm 5 m/S 754 mmHg 46%
    23:00 +28°C° 0 mm 5 m/S 754 mmHg 43%

    11 April, Samstag

    Zeit Temperatur Niederschläge Wind Luftdruck Luftfeuchtigkeit
    00:00 +28°C° 0 mm 5 m/S 754 mmHg 41%
    01:00 +27°C° 0 mm 5 m/S 754 mmHg 41%
    02:00 +27°C° 0 mm 5 m/S 754 mmHg 41%
    03:00 +27°C° 0 mm 5 m/S 753 mmHg 41%
    04:00 +27°C° 0 mm 6 m/S 754 mmHg 44%
    05:00 +27°C° 0 mm 6 m/S 754 mmHg 47%
    06:00 +26°C° 0 mm 6 m/S 754 mmHg 50%
    07:00 +28°C° 0 mm 7 m/S 755 mmHg 46%
    08:00 +29°C° 0 mm 8 m/S 755 mmHg 41%
    09:00 +31°C° 0 mm 8 m/S 756 mmHg 36%
    10:00 +31°C° 0 mm 9 m/S 756 mmHg 35%
    11:00 +32°C° 0 mm 9 m/S 756 mmHg 34%
    12:00 +33°C° 0 mm 9 m/S 756 mmHg 32%
    13:00 +33°C° 0.1 mm 10 m/S 755 mmHg 32%
    14:00 +33°C° 0.1 mm 10 m/S 755 mmHg 32%
    15:00 +33°C° 0.1 mm 10 m/S 754 mmHg 32%
    16:00 +32°C° 0.1 mm 10 m/S 754 mmHg 32%
    17:00 +31°C° 0.1 mm 10 m/S 754 mmHg 33%
    18:00 +29°C° 0.1 mm 10 m/S 755 mmHg 34%
    19:00 +29°C° 0 mm 10 m/S 755 mmHg 36%
    20:00 +28°C° 0 mm 9 m/S 755 mmHg 38%
    21:00 +27°C° 0 mm 8 m/S 756 mmHg 40%
    22:00 +27°C° 0 mm 8 m/S 756 mmHg 39%
    23:00 +26°C° 0 mm 7 m/S 756 mmHg 38%
    Mehr zeigen